Weather History for Franklin, NC

Change the Weather History Date:

Monday, January 6, 2014

  Actual Average (KTOC) Record (KTOC)
Temperature  
Mean Temperature 18 °F -  
Max Temperature 44 °F 50 °F 45 °F (2014)
Min Temperature 3 °F 32 °F 12 °F (2014)
Degree Days  
Heating Degree Days 48    
Moisture  
Dew Point 4 °F    
Average Humidity 60    
Maximum Humidity 79    
Minimum Humidity 45    
Precipitation  
Precipitation 0.02 in - - ()
Sea Level Pressure  
Sea Level Pressure 30.06 in    
Wind  
Wind Speed 12 mph (NW)    
Max Wind Speed 17 mph    
Max Gust Speed 29 mph    
Visibility 10 miles    
Events Snow    
Averages and records for this station are not official NWS values.
T = Trace of Precipitation, MM = Missing Value Source: NWS Daily Summary

Daily Weather History Graph

Daily Weather History Graph

Search for Another Location

Airport:

Trip Planner

Search our weather history database for the weather conditions in past years. The results will help you decide how hot, cold, wet, or windy it might be!

Date:

Astronomy

Jan. 06, 2014 Rise Set
Actual Time 7:42 AM EST 5:36 PM EST
Civil Twilight 7:14 AM EST 6:04 PM EST
Nautical Twilight 6:43 AM EST 6:36 PM EST
Astronomical Twilight 6:12 AM EST 7:06 PM EST
Moon 11:11 AM EST (1/6) 11:53 PM EST (1/6)
Length of Visible Light 10h 49m
Length of Day
9h 53m
Waxing Crescent, 34% of the Moon is Illuminated
Jan 6
Waxing Crescent
Jan 7
First Quarter
Jan 15
Full
Jan 24
Last Quarter
Jan 30
New

Hourly Weather History & Observations

Time (EST) Temp. Windchill Dew Point Humidity Pressure Visibility Wind Dir Wind Speed Gust Speed Precip Events Conditions
4:15 AM 32.0 °F 21.6 °F 24.4 °F 74% 29.83 in 10.0 mi North 15.0 mph 25.3 mph N/A   Mostly Cloudy
4:35 AM 30.7 °F 19.6 °F 23.0 °F 73% 29.84 in 10.0 mi North 16.1 mph 26.5 mph N/A   Scattered Clouds
4:55 AM 29.3 °F 19.6 °F 22.6 °F 76% 29.85 in 10.0 mi NW 11.5 mph 20.7 mph N/A   Mostly Cloudy
5:15 AM 27.9 °F 17.3 °F 22.1 °F 79% 29.85 in 10.0 mi NNW 12.7 mph 27.6 mph N/A   Overcast
5:35 AM 27.1 °F 16.4 °F 21.0 °F 78% 29.87 in 10.0 mi WNW 12.7 mph 25.3 mph N/A   Mostly Cloudy
5:55 AM 26.6 °F 16.2 °F 20.5 °F 78% 29.87 in 10.0 mi NW 11.5 mph 19.6 mph N/A   Mostly Cloudy
6:15 AM 25.9 °F 14.3 °F 19.9 °F 78% 29.88 in 10.0 mi NW 13.8 mph 27.6 mph N/A   Scattered Clouds
6:35 AM 25.0 °F 12.6 °F 19.0 °F 78% 29.89 in 10.0 mi NW 15.0 mph 25.3 mph N/A   Scattered Clouds
6:55 AM 24.4 °F 20.1 °F 17.8 °F 76% 29.91 in 10.0 mi NW 3.5 mph - N/A   Mostly Cloudy
7:15 AM 23.5 °F 17.6 °F 16.5 °F 75% 29.92 in 10.0 mi NNE 4.6 mph 16.1 mph N/A Snow Light Snow
7:35 AM 22.8 °F 10.9 °F 15.1 °F 72% 29.94 in 10.0 mi NW 12.7 mph 18.4 mph N/A Snow Light Snow
7:55 AM 22.1 °F 8.9 °F 13.5 °F 69% 29.95 in 10.0 mi WNW 15.0 mph 19.6 mph N/A Snow Light Snow
8:15 AM 21.4 °F 9.1 °F 13.3 °F 71% 29.96 in 10.0 mi WNW 12.7 mph 23.0 mph N/A Snow Light Snow
8:35 AM 21.2 °F 16.4 °F 13.1 °F 71% 29.96 in 10.0 mi North 3.5 mph 18.4 mph N/A Snow Light Snow
8:55 AM 21.0 °F 14.6 °F 12.7 °F 70% 29.98 in 10.0 mi North 4.6 mph - N/A   Scattered Clouds
9:15 AM 21.6 °F 13.0 °F 12.7 °F 69% 29.98 in 10.0 mi NNW 6.9 mph - N/A Snow Light Snow
9:35 AM 21.0 °F 9.3 °F 11.5 °F 67% 29.99 in 10.0 mi WNW 11.5 mph 17.3 mph N/A   Clear
9:55 AM 21.2 °F 9.5 °F 11.5 °F 66% 30.01 in 10.0 mi WNW 11.5 mph 20.7 mph N/A Snow Light Snow
10:15 AM 22.5 °F 11.7 °F 12.2 °F 65% 30.02 in 10.0 mi WNW 10.4 mph 19.6 mph N/A   Scattered Clouds
10:35 AM 22.3 °F 8.7 °F 11.8 °F 64% 30.02 in 10.0 mi NW 16.1 mph 21.9 mph N/A   Clear
10:55 AM 22.3 °F 9.2 °F 11.1 °F 62% 30.03 in 10.0 mi WNW 15.0 mph 21.9 mph N/A   Clear
11:15 AM 21.6 °F 13.0 °F 9.9 °F 61% 30.03 in 10.0 mi NNW 6.9 mph 25.3 mph N/A   Mostly Cloudy
11:35 AM 22.6 °F 11.9 °F 10.8 °F 60% 30.02 in 10.0 mi NW 10.4 mph 20.7 mph N/A   Overcast
11:55 AM 21.6 °F 7.8 °F 9.7 °F 60% 30.01 in 10.0 mi North 16.1 mph 20.7 mph N/A Snow Light Snow
12:15 PM 20.3 °F 8.3 °F 9.3 °F 63% 30.01 in 7.0 mi North 11.5 mph 21.9 mph N/A Snow Light Snow
12:35 PM 21.0 °F 9.9 °F 9.7 °F 62% 30.00 in 7.0 mi North 10.4 mph 19.6 mph N/A Snow Light Snow
12:55 PM 21.2 °F 9.5 °F 9.5 °F 61% 29.99 in 10.0 mi North 11.5 mph - N/A   Overcast
1:15 PM 22.3 °F 13.0 °F 9.1 °F 57% 29.99 in 10.0 mi North 8.1 mph 16.1 mph N/A   Mostly Cloudy
1:35 PM 22.8 °F 11.5 °F 8.1 °F 53% 29.98 in 10.0 mi North 11.5 mph 19.6 mph N/A   Scattered Clouds
1:55 PM 21.2 °F 8.9 °F 6.8 °F 54% 29.99 in 10.0 mi NNW 12.7 mph 21.9 mph N/A   Scattered Clouds
2:15 PM 18.5 °F 3.8 °F 5.7 °F 58% 30.00 in 10.0 mi North 16.1 mph 20.7 mph N/A   Scattered Clouds
2:35 PM 15.6 °F -0.4 °F 3.7 °F 59% 30.04 in 10.0 mi NNW 17.3 mph 25.3 mph N/A   Mostly Cloudy
2:55 PM 13.8 °F -1.7 °F 2.1 °F 60% 30.06 in 10.0 mi NNW 15.0 mph 28.8 mph N/A   Overcast
3:15 PM 12.7 °F -1.1 °F -2.0 °F 52% 30.07 in 10.0 mi NNW 11.5 mph 24.2 mph N/A   Mostly Cloudy
3:35 PM 12.0 °F -4.0 °F -5.6 °F 45% 30.08 in 10.0 mi North 15.0 mph 25.3 mph N/A   Scattered Clouds
3:55 PM 11.1 °F -2.4 °F -5.8 °F 47% 30.10 in 10.0 mi WNW 10.4 mph 26.5 mph N/A   Clear
4:15 PM 10.8 °F -6.2 °F -4.7 °F 50% 30.10 in 10.0 mi NW 16.1 mph 24.2 mph N/A   Clear
4:35 PM 10.9 °F -0.8 °F -3.8 °F 52% 30.11 in 10.0 mi NW 8.1 mph 20.7 mph N/A   Clear
4:55 PM 10.4 °F -3.3 °F -4.2 °F 52% 30.11 in 10.0 mi NNW 10.4 mph 18.4 mph N/A   Clear
5:15 PM 8.8 °F -1.1 °F -5.6 °F 52% 30.12 in 10.0 mi NW 5.8 mph 18.4 mph N/A   Clear
5:35 PM 8.1 °F -5.3 °F -5.8 °F 53% 30.13 in 10.0 mi NW 9.2 mph 24.2 mph N/A   Clear
5:55 PM 7.7 °F -5.8 °F -6.0 °F 54% 30.14 in 10.0 mi NW 9.2 mph 19.6 mph N/A   Clear
6:15 PM 7.2 °F -8.1 °F -7.2 °F 52% 30.16 in 10.0 mi NNW 11.5 mph 21.9 mph N/A   Clear
6:35 PM 6.8 °F -9.3 °F -6.9 °F 54% 30.17 in 10.0 mi WNW 12.7 mph 19.6 mph N/A   Clear
6:55 PM 6.6 °F -8.0 °F -7.6 °F 52% 30.19 in 10.0 mi NW 10.4 mph 20.7 mph N/A   Clear
7:15 PM 6.3 °F -8.4 °F -8.7 °F 50% 30.20 in 10.0 mi NW 10.4 mph 19.6 mph N/A   Clear
7:35 PM 5.9 °F -10.5 °F -7.6 °F 54% 30.20 in 10.0 mi WNW 12.7 mph 21.9 mph N/A   Scattered Clouds
7:55 PM 5.7 °F -10.7 °F -7.8 °F 54% 30.22 in 10.0 mi WNW 12.7 mph 19.6 mph N/A   Clear
8:15 PM 5.4 °F -11.8 °F -9.2 °F 51% 30.23 in 10.0 mi NW 13.8 mph 21.9 mph N/A   Clear
8:35 PM 5.0 °F -10.0 °F -9.8 °F 51% 30.24 in 10.0 mi NW 10.4 mph 23.0 mph N/A   Clear
8:55 PM 4.6 °F -14.6 °F -10.7 °F 49% 30.24 in 10.0 mi NW 17.3 mph 25.3 mph N/A   Clear
9:15 PM 4.1 °F -12.7 °F -10.8 °F 50% 30.24 in 10.0 mi NW 12.7 mph 17.3 mph N/A   Clear
9:35 PM 3.9 °F -11.3 °F -10.5 °F 51% 30.25 in 10.0 mi NW 10.4 mph 19.6 mph N/A   Clear
9:55 PM 3.9 °F -12.2 °F -10.7 °F 51% 30.25 in 10.0 mi WNW 11.5 mph 20.7 mph N/A   Clear
10:15 PM 3.6 °F -10.9 °F -10.3 °F 53% 30.25 in 10.0 mi NW 9.2 mph 21.9 mph N/A   Clear
10:35 PM 3.2 °F -12.2 °F -9.8 °F 55% 30.25 in 10.0 mi NNW 10.4 mph - N/A   Clear
10:55 PM 3.2 °F -11.3 °F -9.2 °F 56% 30.24 in 10.0 mi NNW 9.2 mph 18.4 mph N/A   Clear
11:15 PM 3.2 °F -13.9 °F -8.9 °F 57% 30.25 in 10.0 mi NNW 12.7 mph 19.6 mph N/A   Clear
11:35 PM 3.0 °F -6.4 °F -9.0 °F 57% 30.26 in 10.0 mi WNW 4.6 mph - N/A   Clear
11:55 PM 3.0 °F -13.3 °F -9.4 °F 56% 30.25 in 10.0 mi WNW 11.5 mph 21.9 mph N/A   Clear